Preview of NWS' New Version of Forecast
This preview is not operational and should not be used for support decisions.
Latest weather observations around

Ak-Chin Regional Airport (KA39)

Using English Units (Switch to International System of Units)
Date/ Time (MST) Wind (mph) Vis. (mi) Weather Sky Cond. Temp (°F) Rel. Humidity Wind Chill (°F) Heat Index (°F) Pressure Precip. (in)
Air Dwpt 6 hour Altimeter (inHg) Sea level (inHg) 1 hr 3 hr 6 hr
Max Min
Notice The following observation data may not be complete
Aug 19 07:15 SE 7 10 Clear     52      %     29.95        
Aug 19 06:55 SE 3 10 Clear   79 50     37%   78 29.95        
Aug 19 06:35 ESE 6 10 Clear   75 50     41%   74 29.94        
Aug 19 06:15 SE 6 10 Clear   73 52     47%   73 29.94        
Aug 19 05:55 S 5 10 Clear   73 50     44%   72          
Aug 19 05:35 ESE 6 10 Clear   77 48     36%   76 29.92        
Aug 19 05:15 E 7 10 Clear   77 48     36%   76 29.92        
Aug 19 04:55 ESE 9 10 Clear   79 48     34%   78 29.91        
Aug 19 04:35 ESE 9 10 Clear   77 48     36%   76 29.91        
Aug 19 03:15 ESE 8 10 Clear   77 46     34%   76 29.89        
Aug 19 02:55 ESE 7 10 Clear   77 46     34%   76 29.89        
Aug 19 02:35 ESE 7 10 Cloudy BKN100 OVC120 79 46     32%   78 29.88        
Aug 19 02:15 SSE 3 10 Clear   79 45     30%   78 29.88        
Aug 19 01:55 SE 3 10 Cloudy SCT075 BKN100 OVC120 77 46     34%   76 29.88        
Aug 19 01:35 ESE 6 10 Clear   79 46     32%   78 29.88        
Aug 19 01:15 SE 6 10 Clear   79 46     32%   78 29.89        
Aug 19 00:55 SSE 7 10 Clear   82 46     28%   81 29.89        
Aug 19 00:35 SE 8 10 Clear   81 48     32%   80 29.89        
Aug 19 00:15 SE 5 10 Clear   79 48     34%   78 29.89        
Notice The following observation data may not be complete
Aug 18 23:55 SE 5 10 Clear     48      %     29.88        
Aug 18 23:35 Calm 10 Clear   81 48     32%   80 29.88        
Aug 18 23:15 Calm 10 Clear   81 50     34%   80 29.88        
Notice The following observation data may not be complete
Aug 18 22:55 E 3 10 Clear     50      %     29.88        
Aug 18 22:35 Calm 10 Clear   82 54     37%   81 29.87        
Aug 18 22:15 W 3 10 Clear   84 52     33%   82 29.87        
Notice The following observation data may not be complete
Aug 18 21:55 SW 9 10 Clear     52      %     29.87        
Aug 18 21:35 ENE 6 10 Clear   90 45     21%   86 29.85        
Aug 18 21:15 NE 5 10 Clear   91 45     20%   88 29.85        
Aug 18 20:55 ENE 7 10 Clear   91 45     20%   88 29.85        
Aug 18 20:35 NNE 6 10 Clear   91 45     20%   88 29.84        
Aug 18 20:15 NE 8 10 Clear   93 45     19%   89 29.84        
Aug 18 19:55 ENE 8 10 Cloudy BKN100 OVC120 95 45     18%   91 29.83        
Aug 18 19:35 NE 7 10 Clear   97 45     17%   93 29.83        
Aug 18 19:15 NE 6 10 Clear   99 45     16%   95 29.82        
Aug 18 18:55 NE 8 10 Clear   100 45     15%   96 29.82        
Aug 18 18:35 NNE 3 10 Clear   102 45     14%   98 29.82        
Aug 18 18:15 Calm 10 Clear   102 45     14%   98 29.83        
Aug 18 17:55 Calm 10 Cloudy OVC110 102 45     14%   98 29.83        
Aug 18 17:35 Calm 10 Clear   102 45     14%   98 29.83        
Aug 18 17:15 SSE 3 10 Clear   102 45     14%   98 29.84        
Aug 18 16:55 S 3 10 Clear   102 46     15%   98 29.84        
Aug 18 16:35 S 3 10 Clear   102 45     14%   98 29.84        
Aug 18 16:15 Calm 10 Clear   102 45     14%   98 29.84        
Aug 18 15:55 WSW 3 10 Clear   100 45     15%   96 29.85        
Aug 18 15:35 Calm 10 Clear   100 45     15%   96 29.85        
Aug 18 15:15 W 3 10 Clear   100 45     15%   96 29.86        
Aug 18 14:55 W 5 10 Clear   100 45     15%   96 29.87        
Aug 18 14:35 Calm 10 Clear   100 45     15%   96 29.88        
Aug 18 14:15 SW 5 10 Clear   100 45     15%   96 29.89        
Aug 18 13:55 WSW 6 10 Clear   100 46     16%   97 29.89        
Aug 18 13:35 WNW 5 10 Clear   100 48     17%   97 29.9        
Aug 18 13:15 SSW 5 10 Clear   100 46     16%   97 29.91        
Aug 18 12:55 NNW 7 10 Clear   100 46     16%   97 29.91        
Aug 18 12:35 Calm 10 Clear   100 46     16%   97 29.92        
Aug 18 12:15 Calm 10 Clear   99 48     18%   95 29.92        
Aug 18 11:55 Calm 10 Clear   99 48     18%   95 29.93        
Aug 18 11:35 SSE 5 10 Clear   97 48     19%   93 29.94        
Aug 18 11:15 Calm 10 Clear   97 50     21%   94 29.94        
Aug 18 10:55 SSE 8 10 Clear   97 54     24%   95 29.94        
Aug 18 10:35 S 12 10 Clear   95 55     27%   93 29.94        
Aug 18 10:15 SSW 5 10 Clear   95 54     25%   93 29.94        
Aug 18 09:55 SSW 7 10 Clear   93 54     26%   91 29.94        
Aug 18 09:35 S 7 10 Clear CLR 93 52     25%   90 29.94        
Aug 18 09:15 SE 6 10 Partly Cloudy SCT120 91 48     23%   88 29.94        
Aug 18 08:55 S 6 10 Clear   91 50     24%   88 29.93        
Aug 18 08:35 SSE 5 10 Clear   90 48     24%   86 29.93        
Aug 18 08:15 SSE 5 10 Clear CLR 86 48     27%   83 29.92        
Aug 18 07:55 SSE 7 10 Clear   84 48     29%   82 29.92        
Aug 18 07:35 SSE 7 10 Clear   82 48     30%   81 29.91        
Aug 18 07:15 SE 6 10 Clear   79 48     34%   78 29.91        
Aug 18 06:55 SE 7 10 Clear   79 48     34%   78 29.9        
Aug 18 06:35 SSE 7 10 Clear   77 48     36%   76 29.9        
Aug 18 06:15 SE 8 10 Clear   75 48     38%   74 29.89        
Aug 18 05:55 ESE 8 10 Clear   75 48     38%   74          
Aug 18 05:35 SE 8 10 Clear   75 48     38%   74 29.88        
Aug 18 05:15 SE 8 10 Clear   75 50     41%   74 29.87        
Aug 18 04:55 SE 8 10 Clear   79 50     37%   78 29.87        
Aug 18 04:35 SE 9 10 Clear   79 50     37%   78 29.86        
Aug 18 04:15 SE 9 10 Clear   77 50     39%   76 29.86        
Aug 18 03:55 SE 8 10 Clear   79 50     37%   78 29.85        
Aug 18 03:35 ESE 8 10 Clear   79 50     37%   78 29.85        
Aug 18 03:15 ESE 10 10 Clear   81 50     34%   80 29.85        
Aug 18 02:55 SE 8 10 Clear   82 50     32%   81 29.85        
Aug 18 02:35 ESE 9 10 Clear   79 48     34%   78 29.85        
Aug 18 02:15 SE 5 10 Clear   82 50     32%   81 29.85        
Aug 18 01:55 SSE 8 10 Clear   84 50     31%   82 29.84        
Aug 18 01:35 SSE 8 10 Clear   84 50     31%   82 29.84        
Aug 18 01:15 SSE 8 10 Clear   86 50     29%   84 29.84        
Aug 18 00:55 SSE 6 10 Clear   84 48     29%   82 29.84        
Aug 18 00:35 SE 7 10 Clear   81 48     32%   80 29.83        
Aug 18 00:15 S 3 10 Clear   84 46     27%   82 29.83        
Aug 17 23:55 S 5 10 Clear   86 46     25%   83 29.83        
Aug 17 23:35 Calm 10 Clear   88 46     24%   85 29.83        
Aug 17 23:15 Calm 10 Clear   86 48     27%   83 29.83        
Aug 17 22:55 SW 6 10 Clear   88 48     26%   85 29.82        
Aug 17 22:35 SW 7 10 Clear   90 48     24%   86 29.82        
Aug 17 22:15 SW 6 10 Clear   90 48     24%   86 29.82        
Notice The following observation data may not be complete
Aug 17 21:55 S 5 10 Clear     48      %     29.82        
Aug 17 21:35 WSW 5 10 Clear   90 48     24%   86 29.81        
Aug 17 21:15 WSW 6 10 Clear   91 48     23%   88 29.8        
Aug 17 20:55 W 10 10 Clear   93 46     20%   90          
Aug 17 20:35 W 10 10 Cloudy BKN100 OVC120 93 46     20%   90 29.78        
Aug 17 20:15 WNW 12 10 Clear   95 48     20%   92 29.77        
Aug 17 19:55 W 10 10 Clear   97 50     21%   94 29.76        
Aug 17 19:35 WNW 8 10 Cloudy BKN100 OVC120 99 50     20%   96 29.75        
Aug 17 19:15 WNW 8 10 Clear   100 48     17%   97 29.75        
Aug 17 18:55 WNW 7 10 Clear   104 45     14%   100 29.74        
Aug 17 18:35 WNW 6 10 Clear   106 46     14%   102 29.74        
Aug 17 18:15 WNW 5 10 Clear   106 46     14%   102 29.74        
Aug 17 17:55 NW 6 10 Clear   106 46     14%   102 29.74        
Aug 17 17:35 Calm 10 Clear   106 46     14%   102 29.74        
Aug 17 17:15 S 3 10 Clear   106 46     14%   102 29.75        
Aug 17 16:55 SSW 5 10 Clear   106 46     14%   102 29.75        
Aug 17 16:35 S 10 10 Clear   106 46     14%   102 29.76        
Aug 17 16:15 S 7 10 Clear   108 45     12%   103 29.76        
Aug 17 15:55 S 10 10 Clear   108 45     12%   103 29.77        
Aug 17 15:35 S 10 10 Clear   106 48     15%   102 29.78        
Aug 17 15:15 SSE 9 10 Clear   106 52     17%   104 29.79        
Aug 17 14:55 ENE 5 10 Clear   104 54     19%   102 29.8        
Aug 17 14:35 SSE 5 10 Clear   104 54     19%   102 29.81        
Aug 17 14:15 WNW 5 10 Clear   104 55     20%   103 29.81        
Aug 17 13:55 W 9 10 Clear   104 57     22%   104 29.82        
Aug 17 13:35 SW 5 10 Clear   102 59     24%   103 29.83        
Aug 17 13:15 SSE 7 10 Clear   102 59     24%   103 29.84        
Aug 17 12:55 SE 8 10 Clear   102 57     23%   102 29.85        
Aug 17 12:35 SE 6 10 Clear   102 55     21%   101 29.86        
Aug 17 12:15 S 8 10 Clear   100 59     26%   101 29.87        
Aug 17 11:55 SSW 6 10 Clear   99 61     29%   99 29.88        
Aug 17 11:35 S 6 10 Clear   97 63     33%   98 29.89        
Aug 17 11:15 SW 5 10 Clear   97 61     31%   97 29.9        
Aug 17 10:55 SW 5 10 Clear CLR 97 63     33%   98 29.91        
Aug 17 10:35 SW 3 10 Clear   95 63     34%   96 29.91        
Aug 17 10:15 WSW 5 10 Clear   93 64     39%   95 29.92        
Aug 17 09:55 SSW 5 10 Clear   93 64     39%   95 29.92        
Aug 17 09:35 S 6 10 Clear CLR 93 64     39%   95 29.92        
Aug 17 09:15 SSE 6 10 Clear   93 64     39%   95 29.92        
Aug 17 08:55 SE 8 10 Clear   91 64     41%   93 29.91        
Aug 17 08:35 SE 7 10 Clear   91 63     38%   92 29.91        
Aug 17 08:15 SE 8 10 Clear   90 63     41%   90 29.91        
Aug 17 07:55 SE 8 10 Clear   90 63     41%   90 29.91        
Aug 17 07:35 E 8 10 Clear   88 61     40%   88 29.9        
Aug 17 07:15 ESE 6 10 Clear   86 61     43%   86 29.9        
Aug 17 06:55 ESE 7 10 Clear CLR 84 61     45%   84 29.89        
Aug 17 06:35 E 7 10 Clear CLR 82 61     48%   83 29.89        
Aug 17 06:15 E 6 10 Clear CLR 82 61     48%   83 29.88        
Aug 17 05:55 E 5 10 Clear CLR 81 61     51%   81          
Aug 17 05:35 SE 5 10 Clear   81 61     51%   81 29.87        
Aug 17 05:15 SE 6 10 Clear   79 61     54%   79 29.86        
Aug 17 04:55 ESE 9 10 Clear   81 61     51%   81 29.86        
Aug 17 04:35 ESE 12 10 Clear   81 61     51%   81 29.86        
Aug 17 04:15 ESE 10 10 Clear   81 59     48%   81 29.86        
Aug 17 03:55 ESE 8 10 Clear   81 59     48%   81 29.86        
Aug 17 03:35 SE 8 10 Clear   82 59     45%   82 29.85        
Aug 17 03:15 ESE 10 10 Clear   82 59     45%   82 29.85        
Aug 17 02:55 SE 9 10 Clear   82 59     45%   82 29.85        
Aug 17 02:35 SE 9 10 Clear   82 57     42%   82 29.86        
Aug 17 02:15 SE 7 10 Clear   82 57     42%   82 29.86        
Aug 17 01:55 SE 7 10 Clear   84 57     40%   83 29.86        
Aug 17 01:35 SE 8 10 Clear   84 57     40%   83 29.87        
Aug 17 01:15 SSE 6 10 Clear   84 59     43%   84 29.86        
Aug 17 00:55 S 9 10 Clear   84 59     43%   84 29.87        
Aug 17 00:35 SSE 7 10 Clear   86 59     40%   85 29.87        
Aug 17 00:15 S 6 10 Clear CLR 86 57     38%   85 29.87        
Aug 16 23:55 SSE 6 10 Clear   88 57     36%   87 29.86        
Aug 16 23:35 SE 7 10 Clear   86 57     38%   85 29.86        
Aug 16 23:15 SSW 7 10 Clear CLR 88 57     36%   87 29.85        
Aug 16 22:55 S 7 10 Clear   88 59     38%   87 29.85        
Aug 16 22:35 S 8 10 Clear CLR 90 59     36%   89 29.85        
Aug 16 22:15 SSE 5 10 Clear   90 59     36%   89 29.84        
Aug 16 21:55 S 3 10 Clear   90 59     36%   89 29.83        
Aug 16 21:35 WSW 5 10 Clear   93 57     30%   92 29.83        
Aug 16 21:15 Calm 10 Clear   93 59     32%   93 29.83        
Aug 16 20:55 SW 3 10 Clear   93 59     32%   93 29.82        
Aug 16 20:35 SW 5 10 Clear   93 61     34%   93 29.81        
Aug 16 20:15 Calm 10 Clear   97 54     24%   95 29.8        
Aug 16 19:55 Calm 10 Clear   99 52     21%   96 29.79        
Aug 16 19:35 Calm 10 Clear   100 52     20%   98 29.79        
Aug 16 19:15 Calm 10 Clear   102 52     19%   100 29.78        
Aug 16 18:55 Calm 10 Clear   102 52     19%   100 29.78        
Aug 16 18:35 Calm 10 Clear   104 52     18%   102 29.78        
Aug 16 18:15 Calm 10 Clear   104 50     17%   101 29.78        
Aug 16 17:55 ENE 5 10 Clear CLR 104 50     17%   101 29.79        
Aug 16 17:35 ENE 9 10 Clear   104 50     17%   101 29.8        
Aug 16 17:15   7 Clear   99 57     25%   98 29.82        
Aug 16 16:55   10 Clear   102 55     21%   101 29.82        
Aug 16 16:35   10 Clear   102 54     20%   100 29.81        
Aug 16 16:15 SSW 7 10 Clear   106 48     15%   102 29.81        
Aug 16 15:55 W 9 10 Clear   108 48     14%   104 29.81        
Aug 16 15:35 Calm 10 Clear   106 48     15%   102 29.82        
Aug 16 15:15 SSE 5 10 Clear   108 48     14%   104 29.83        
Aug 16 14:55 W 9 10 Cloudy OVC095 106 48     15%   102 29.84        
Aug 16 14:35 SW 7 10 Clear   106 46     14%   102 29.85        
Aug 16 14:15 ESE 5 10 Clear   106 46     14%   102 29.87        
Aug 16 13:55 Calm 10 Clear   104 46     15%   100 29.88        
Aug 16 13:35 NNE 7 10 Clear   106 46     14%   102 29.89        
Aug 16 13:15 S 3 10 Clear   106 46     14%   102 29.9        
Aug 16 12:55 Calm 10 Clear   104 46     15%   100 29.91        
Aug 16 12:35 SW 7 10 Clear   104 45     14%   100 29.92        
Aug 16 12:15 SW 3 10 Clear   102 41     12%   97 29.92        
Aug 16 11:55 Calm 10 Clear   102 43     13%   98 29.94        
Aug 16 11:35 NNW 5 10 Clear   102 45     14%   98 29.94        
Aug 16 11:15 W 9 10 Clear   102 48     16%   99 29.95        
Aug 16 10:55 W 7 10 Clear   100 48     17%   97 29.95        
Aug 16 10:35 WSW 5 10 Clear   100 46     16%   97 29.96        
Aug 16 10:15 WNW 5 10 Clear   99 52     21%   96 29.96        
Aug 16 09:55 SSW 3 10 Clear   99 52     21%   96 29.96        
Aug 16 09:35 S 7 10 Clear   97 52     22%   94 29.96        
Aug 16 09:15 S 9 10 Clear   95 54     25%   93 29.96        
Aug 16 08:55 S 9 10 Clear   95 54     25%   93 29.96        
Aug 16 08:35 S 7 10 Clear   93 54     26%   91 29.96        
Aug 16 08:15 S 8 10 Clear   91 54     28%   89 29.96        
Aug 16 07:55 S 9 10 Clear   88 54     31%   86 29.96        
Aug 16 07:35 SSE 9 10 Clear   86 52     31%   84 29.95        
Aug 16 07:15 SSE 10 10 Clear   86 50     29%   84 29.94        
Aug 16 06:55 SSE 10 10 Clear   84 50     31%   82          
Aug 16 06:35 SE 10 10 Clear   82 48     30%   81 29.93        
Aug 16 06:15 ESE 10 10 Partly Cloudy SCT110 81 46     30%   80 29.92        
Aug 16 05:55 SE 9 10 Clear   79 45     30%   78          
Aug 16 05:35 ESE 9 10 Clear   79 43     28%   78 29.91        
Aug 16 05:15 SE 9 10 Clear   82 43     25%   80 29.9        
Aug 16 04:55 SE 9 10 Clear   82 41     23%   80 29.9        
Aug 16 04:35 SE 12 10 Clear   82 41     23%   80 29.89        
Aug 16 04:15 ESE 12 10 Clear   82 39     22%   80 29.89        
Aug 16 03:55 ESE 9 10 Clear CLR 82 37     20%   80 29.88        
Aug 16 03:35 ESE 12 10 Clear   82 36     19%   80 29.88        
Aug 16 03:15 E 10 10 Clear   82 36     19%   80 29.88        
Aug 16 02:55 E 12 10 Clear CLR 82 36     19%   80 29.88        
Aug 16 02:35 ESE 10 10 Partly Cloudy SCT120 81 36     20%   79 29.87        
Aug 16 02:15 ESE 9 10 Clear   81 34     18%   79 29.87        
Aug 16 01:55 ESE 9 10 Clear   82 34     17%   80 29.87        
Aug 16 01:35 SE 8 10 Clear   82 34     17%   80 29.86        
May 15 07:35 SE 6 10 Clear   73 25     16%   71 29.98        
Notice The following observation data may not be complete
May 14 23:55   10 Clear            %              
May 14 18:55 NW 6 10 Clear   90 34     14%   86 29.82        
May 14 16:55 WNW 8 10 Clear   93 32     11%   88 29.82        
May 14 16:35 WNW 10 10 Clear   93 32     11%   88 29.82        
May 14 11:35 S 8 10 Clear   84 28     13%   81 29.95        
May 14 09:35 S 5 10 Clear   79 21     12%   77 29.96        
May 14 05:55 ESE 10 10 Clear   63 14     15%     29.94        
May 14 03:55 ESE 7 10 Clear   61 16     17%     29.92        
May 13 19:35 WNW 9 10 Clear   82 36     19%   80 29.87        
Notice The following observation data may not be complete
May 13 06:55   10 Clear            %              
May 13 03:35 SSE 8 10 Clear   63 39     42%     29.93        
May 12 22:35 S 10 10 Clear   72 32     23%   70          
May 12 00:35   10 Clear   75 39     27%   74 29.78        
May 12 00:15 SW 14 10 Clear   75 39     27%   74          
May 11 17:15   3 Clear   95 36     13%   90 29.67        
May 11 10:15   10 Clear   91 37     15%   87 29.79